Hourly Data Report for August 13, 2018

All times are specified in Local Standard Time (LST). Add 1 hour to adjust for Daylight Saving Time where and when it is observed.

BAKER LAKE CLIMATE
NUNAVUT
Current Station Operator: ECCC - MSC

64°19'00.000" N
96°00'00.000" W
50.80 m
2300501
71356
XBL

Download Data

Hourly Data (August 2018)
Hourly Data Report for August 13, 2018
TIME Temp Definition
°C
Dew Point Definition
°C
Rel Hum Definition
%
Wind Dir Definition
10's deg

Wind Spd Definition
km/h
Visibility Definition
km
Stn Press Definition
kPa
Hmdx Definition


Wind Chill Definition


Weather Definition


00:00 3.5 1.1 84 30 20   100.80     LegendNANA
01:00 3.2 1.4 87 30 18   100.80     LegendNANA
02:00 3.4 1.3 86 30 16   100.77     LegendNANA
03:00 3.9 1.3 83 30 20   100.76     LegendNANA
04:00 4.0 0.9 80 29 19   100.75     LegendNANA
05:00 4.1 1.1 80 28 20   100.74     LegendNANA
06:00 5.4 2.2 80 27 18   100.73     LegendNANA
07:00 7.2 2.8 74 27 20   100.69     LegendNANA
08:00 9.7 3.1 64 27 22   100.64     LegendNANA
09:00 11.4 4.9 64 28 24   100.58     LegendNANA
10:00 11.4 5.0 65 27 25   100.52     LegendNANA
11:00 12.0 4.8 61 24 19   100.47     LegendNANA
12:00 11.6 5.3 65 22 19   100.43     LegendNANA
13:00 12.1 5.7 65 20 12   100.38     LegendNANA
14:00 13.1 5.1 59 19 14   100.33     LegendNANA
15:00 12.7 5.1 60 14 15   100.27     LegendNANA
16:00 12.7 5.2 60 13 14   100.21     LegendNANA
17:00 12.7 5.2 60 14 13   100.20     LegendNANA
18:00 12.4 5.3 62 13 12   100.18     LegendNANA
19:00 11.2 5.3 67 13 15   100.14     LegendNANA
20:00 9.9 5.4 74 10 9   100.13     LegendNANA
21:00 8.5 4.8 78 8 14   100.09     LegendNANA
22:00 9.8 6.0 77 13 22   100.03     LegendNANA
23:00 9.0 6.7 85 12 15   99.96     LegendNANA

Notes on Data Quality.

Legend

  • E = Estimated
  • M = Missing
  • NA = Not Available
Date modified: